Wetbulb
56.02 58.38 59.87 61.48 62.47 63.82 64.41 65.37 65.48 65.64 66.05 66.32 66.26 66.16 65.57 65.07 64.48 64.00 62.50 62.12 64.07 65.71 67.52 69.69 71.14 70.52 69.64 68.79 68.45 68.12 67.67 67.20 66.87 66.55 66.26 65.91 65.40 65.20 65.23 65.09 64.84 64.66 64.55
54.76 56.89 58.01 58.92 60.48 62.66 63.70 64.36 65.24 65.17 64.94 65.35 65.60 66.07 65.60 65.34 64.72 63.72 62.71 61.28 63.00 64.43 66.34 68.19 70.56 70.33 70.17 69.32 68.90 68.62 68.75 67.75 67.39 66.99 66.68 66.40 66.10 65.63 65.36 65.42 65.36 65.18 65.09
52.09 53.95 55.98 56.67 58.52 61.06 62.18 62.86 63.59 64.89 64.97 65.10 64.97 65.49 65.34 65.18 64.37 63.81 63.44 61.97 61.68 62.44 64.23 66.20 68.19 70.16 70.40 69.77 69.43 68.83 68.10 68.74 68.39 68.11 67.57 67.26 67.18 66.91 66.14 65.83 65.71 65.72 65.77
52.60 53.97 55.17 56.72 59.20 60.74 61.57 60.96 60.88 61.51 63.22 64.09 63.59 64.27 64.55 64.83 64.31 63.86 63.82 63.70 63.22 62.41 62.74 64.87 66.67 68.86 70.11 69.94 69.82 69.41 69.42 68.60 68.47 68.44 68.32 68.07 67.79 67.60 66.94 66.72 66.85 66.55 66.28
55.41 55.18 55.74 56.48 57.50 58.26 58.86 59.37 59.32 60.59 61.20 62.39 62.88 63.68 64.18 64.57 64.67 63.91 62.96 63.42 62.69 62.18 62.10 63.33 64.14 65.17 66.28 68.67 69.33 69.12 69.18 68.72 68.42 68.57 68.25 68.13 68.13 68.18 67.91 67.38 67.63 67.38 66.90
52.45 51.93 53.15 53.73 55.04 55.78 56.87 56.78 56.66 58.80 59.73 60.87 61.55 61.88 62.47 63.86 63.76 63.23 62.10 61.29 60.88 60.47 61.35 61.68 61.03 62.00 62.19 63.14 65.39 67.33 67.86 68.95 67.91 67.99 68.73 68.19 67.95 68.64 68.34 68.18 68.28 67.98 67.53
50.58 48.77 48.96 50.30 51.75 53.56 53.79 56.31 56.30 55.80 57.65 60.14 59.78 59.88 60.84 62.49 62.87 62.84 63.06 62.43 62.08 62.18 62.09 61.40 60.51 60.97 61.30 62.01 62.83 64.27 65.69 66.53 66.87 67.65 67.91 68.73 68.12 68.77 68.67 68.40 68.36 68.08 68.04
47.92 46.73 46.22 48.67 50.05 51.04 52.45 53.83 55.71 55.75 56.70 59.22 57.08 55.64 55.15 56.34 60.29 61.70 62.20 62.52 62.02 62.00 61.99 61.91 61.67 61.42 60.67 60.79 60.63 61.74 63.14 64.75 65.70 66.22 66.83 67.17 67.98 69.06 69.07 69.12 69.10 68.54 68.56
45.35 45.15 45.08 46.59 48.53 49.01 50.07 50.62 54.97 54.20 53.81 56.93 59.09 55.65 53.22 52.30 53.54 57.71 60.37 61.41 61.53 61.15 61.55 61.50 60.76 61.10 61.19 60.79 60.49 60.55 61.05 61.99 63.95 64.63 65.45 66.29 66.62 67.22 68.68 68.78 69.20 69.24 68.87
43.44 43.74 43.99 44.47 44.85 47.37 48.11 48.44 51.52 54.70 55.30 54.16 57.13 59.47 56.66 55.95 53.08 51.74 55.37 59.63 60.96 60.47 60.81 61.38 61.33 60.54 60.36 59.95 59.49 59.36 59.96 61.07 63.39 65.37 66.07 66.48 66.40 66.69 68.14 68.28 68.82 69.14 68.89
42.68 43.06 43.09 43.23 43.53 44.58 45.82 46.81 47.81 49.28 51.29 55.65 56.18 55.41 56.63 56.93 55.63 54.63 52.86 54.48 56.50 59.07 60.96 60.76 61.01 60.30 60.30 60.19 59.75 58.96 58.95 60.50 62.85 64.25 65.23 66.05 66.34 66.80 67.18 67.68 68.36 68.68 68.73
41.64 40.72 42.44 42.04 43.03 43.41 43.47 44.45 45.35 46.50 47.77 48.49 51.28 51.43 50.88 49.53 47.14 48.57 52.23 54.47 54.72 55.86 57.79 58.76 60.14 60.36 59.83 59.77 51.33 52.29 55.21 56.70 59.12 60.85 62.92 64.06 64.71 65.48 65.88 66.42 66.89 67.67 67.90
36.29 35.36 37.71 38.77 40.86 42.11 42.53 43.19 43.41 44.31 44.41 45.32 46.43 47.79 47.70 47.88 48.28 48.71 49.12 48.08 54.08 55.63 56.32 53.26 53.23 51.53 51.49 52.67 49.26 50.89 52.83 53.58 54.77 58.23 60.96 62.44 62.62 62.78 62.90 63.88 65.39 66.20 66.76
33.98 34.33 34.97 35.93 37.42 39.79 40.72 40.86 41.20 41.98 43.02 43.14 42.45 42.75 46.01 44.18 43.87 44.63 45.64 45.20 46.77 49.60 51.76 51.27 48.21 46.52 48.20 46.88 47.67 50.04 50.93 50.47 53.41 55.40 56.75 56.54 56.31 57.72 60.00 61.07 62.13 63.09 64.96
33.40 32.10 32.45 32.95 34.02 35.80 36.94 38.53 38.66 38.83 40.00 41.42 42.07 41.51 43.58 41.30 40.69 42.12 45.00 45.12 44.38 44.82 46.82 48.80 48.05 43.70 44.38 43.98 46.85 46.50 45.98 48.48 51.67 52.35 52.17 50.99 52.33 54.32 55.81 58.49 59.64 60.65 61.34
29.90 30.37 30.69 31.12 31.67 33.86 34.60 34.72 34.97 35.87 36.79 37.94 39.12 40.54 40.45 40.12 39.72 40.38 42.99 41.80 42.69 41.88 42.15 43.16 42.39 41.14 41.97 42.14 43.70 42.55 45.12 45.69 48.39 47.01 47.82 47.49 51.89 53.51 54.01 55.01 56.29 58.41 59.40
28.59 29.11 29.72 30.16 30.25 31.70 32.72 32.61 32.73 32.80 33.32 34.35 35.79 36.54 35.99 36.92 37.21 38.45 41.45 39.70 40.06 40.53 37.87 39.74 40.21 39.83 39.23 38.12 39.67 38.15 40.65 40.85 41.35 43.08 44.28 45.25 51.19 50.43 49.99 51.47 53.41 54.64 56.27
27.37 27.60 28.06 28.39 28.56 29.53 30.81 31.29 31.21 31.43 30.77 31.21 32.39 33.58 33.60 34.99 35.08 35.97 37.88 37.18 37.24 37.77 36.85 34.40 36.32 35.74 36.48 37.96 35.40 35.16 36.70 38.42 37.61 39.97 42.00 46.25 45.93 45.25 44.78 45.88 49.75 51.33 52.51
26.46 26.70 27.17 27.25 27.59 28.34 29.36 30.48 30.75 30.44 30.13 30.50 31.24 31.07 31.64 32.46 32.51 32.81 34.65 34.37 33.91 34.13 33.36 32.88 31.87 33.73 34.38 34.26 32.33 33.07 33.28 33.87 36.18 38.17 42.08 41.05 41.45 42.32 43.02 43.95 45.34 46.76 48.54
25.86 26.08 26.59 27.04 27.40 27.64 29.38 31.11 30.64 29.64 29.10 30.01 31.05 31.12 30.88 31.66 31.79 31.70 33.69 32.40 32.66 31.09 30.86 30.58 30.31 30.37 30.70 31.77 31.07 30.10 30.38 32.31 32.04 34.84 37.22 37.52 39.10 40.45 41.45 42.62 44.28 46.22 46.80
26.17 26.06 26.11 26.45 26.53 28.02 31.38 31.79 30.47 29.44 28.73 28.78 29.61 30.39 31.00 33.74 35.88 35.32 33.73 32.08 30.91 29.61 29.10 28.88 28.17 28.18 28.03 27.82 27.98 30.02 29.25 29.86 30.60 33.09 32.26 32.75 34.16 35.94 37.60 40.42 41.91 42.95 44.32
25.03 25.18 25.10 25.33 25.29 29.08 34.12 37.20 34.74 29.59 29.02 28.67 28.46 28.96 29.83 32.74 33.37 35.86 36.66 37.18 35.20 29.12 28.20 27.47 27.11 27.38 27.27 27.59 28.22 28.56 27.81 26.59 25.19 33.17 30.65 30.30 33.40 33.08 34.98 37.43 40.40 40.16 42.19
24.03 23.80 24.04 24.80 24.98 25.63 35.16 36.88 35.96 28.85 28.75 28.25 29.12 29.00 29.39 31.31 31.63 29.97 33.83 35.42 34.54 36.79 36.77 32.24 28.26 27.26 27.17 28.30 28.90 29.43 26.99 26.15 26.61 30.04 29.23 27.09 31.54 31.64 34.39 33.67 36.30 38.75 44.28
23.33 23.38 23.66 24.26 24.43 26.97 33.70 35.69 35.15 28.26 27.53 27.55 27.94 27.61 27.65 28.38 29.59 32.01 30.16 29.09 29.24 30.03 30.86 31.38 30.19 30.08 29.91 31.02 32.61 31.97 28.63 27.54 27.87 28.83 29.17 22.83 30.91 28.08 29.73 31.48 36.42 40.27 39.30
23.20 23.30 25.11 24.03 23.43 24.79 31.94 34.11 32.58 27.78 27.68 26.80 27.39 27.78 28.97 27.79 32.62 34.79 29.71 28.43 27.88 28.93 34.00 36.18 36.49 36.98 37.55 37.92 37.02 29.43 25.83 23.41 22.97 24.68 26.95 25.33 25.21 26.09 28.28 30.23 34.40 35.77 36.75
25.85 26.17 25.74 24.46 26.78 24.57 29.73 33.07 32.24 27.88 26.27 26.40 26.59 28.16 32.22 31.32 33.89 34.36 30.93 28.49 27.86 28.59 29.13 29.68 31.21 32.39 33.22 31.75 35.14 30.41 26.58 24.33 24.85 21.73 26.59 23.79 24.96 25.19 22.58 29.00 28.54 30.97 31.46
MSLP
1015.77 1015.31 1015.02 1014.73 1014.52 1014.27 1014.19 1013.97 1013.77 1013.51 1013.29 1013.20 1013.17 1013.36 1013.46 1013.60 1013.77 1013.86 1014.09 1014.19 1014.31 1014.43 1014.45 1014.40 1014.42 1014.64 1015.04 1015.39 1015.64 1015.82 1016.03 1016.24 1016.42 1016.58 1016.75 1016.92 1017.12 1017.31 1017.49 1017.58 1017.68 1017.78 1017.93
1015.54 1015.20 1015.00 1014.75 1014.42 1014.09 1013.86 1013.63 1013.37 1013.23 1013.04 1012.79 1012.64 1012.70 1012.85 1012.92 1013.05 1013.28 1013.41 1013.76 1013.98 1014.05 1014.06 1014.02 1013.97 1014.14 1014.42 1014.67 1014.99 1015.24 1015.47 1015.71 1015.97 1016.19 1016.33 1016.48 1016.67 1016.86 1017.06 1017.22 1017.33 1017.42 1017.56
1015.31 1015.00 1014.82 1014.61 1014.28 1014.02 1013.79 1013.44 1013.04 1012.71 1012.57 1012.40 1012.16 1012.16 1012.12 1012.27 1012.37 1012.45 1012.64 1012.94 1013.23 1013.45 1013.58 1013.63 1013.58 1013.65 1013.86 1014.08 1014.24 1014.52 1014.78 1015.07 1015.34 1015.59 1015.83 1015.96 1016.15 1016.39 1016.63 1016.83 1016.99 1017.09 1017.22
1015.23 1015.08 1014.85 1014.48 1013.94 1013.58 1013.31 1013.27 1013.08 1012.67 1012.35 1011.93 1011.64 1011.47 1011.50 1011.60 1011.64 1011.77 1011.89 1012.11 1012.25 1012.66 1012.86 1012.90 1012.96 1013.00 1013.17 1013.43 1013.70 1013.80 1014.00 1014.24 1014.54 1014.81 1015.06 1015.34 1015.52 1015.68 1015.94 1016.19 1016.43 1016.58 1016.74
1015.26 1014.97 1014.70 1014.52 1014.10 1013.68 1013.32 1012.94 1012.53 1012.46 1012.09 1011.62 1011.22 1010.96 1010.92 1010.97 1011.03 1011.04 1011.26 1011.22 1011.47 1011.61 1011.96 1012.09 1012.24 1012.40 1012.78 1012.88 1013.14 1013.29 1013.41 1013.65 1013.75 1013.94 1014.26 1014.52 1014.84 1015.06 1015.21 1015.40 1015.70 1015.95 1016.05
1015.76 1015.49 1014.86 1014.57 1014.16 1013.76 1013.19 1012.88 1012.36 1011.76 1011.59 1011.24 1010.87 1010.41 1010.25 1010.15 1010.29 1010.29 1010.48 1010.58 1010.75 1010.86 1011.20 1011.46 1011.44 1011.67 1011.96 1012.18 1013.01 1012.96 1013.03 1013.07 1013.24 1013.39 1013.54 1013.71 1014.03 1014.27 1014.48 1014.56 1014.83 1015.11 1015.34
1016.15 1015.91 1015.43 1015.00 1014.22 1013.60 1013.27 1012.75 1012.20 1011.51 1010.81 1010.72 1010.50 1009.99 1009.65 1009.49 1009.62 1009.63 1009.89 1009.93 1010.06 1010.16 1010.58 1010.81 1011.05 1011.17 1011.08 1011.42 1012.11 1012.69 1012.96 1012.93 1012.80 1012.82 1012.83 1012.95 1013.07 1013.41 1013.56 1013.73 1013.96 1014.24 1014.41
1016.46 1016.04 1016.01 1015.26 1014.63 1013.93 1013.24 1012.72 1011.80 1011.05 1010.47 1009.99 1010.04 1010.00 1009.46 1009.10 1008.89 1009.03 1009.14 1009.22 1009.38 1009.71 1010.03 1010.12 1010.35 1010.51 1010.83 1011.20 1011.21 1011.59 1012.49 1012.54 1012.73 1012.41 1012.23 1012.36 1012.46 1012.64 1012.67 1012.78 1012.95 1013.30 1013.52
1016.85 1016.47 1015.95 1015.40 1015.16 1014.48 1013.32 1012.86 1011.76 1010.85 1010.14 1009.60 1009.44 1009.55 1009.46 1009.13 1009.01 1008.56 1008.45 1008.54 1008.84 1009.14 1009.37 1009.63 1009.79 1009.95 1010.28 1010.85 1011.03 1011.28 1011.39 1012.17 1012.28 1012.07 1011.86 1011.92 1011.89 1011.78 1011.72 1011.90 1012.04 1012.36 1012.57
1017.12 1016.73 1016.24 1015.53 1015.42 1014.57 1013.87 1013.00 1012.41 1011.02 1010.15 1009.48 1009.10 1008.95 1009.02 1009.09 1009.18 1008.78 1008.44 1008.24 1008.32 1008.61 1008.81 1009.09 1009.41 1009.54 1009.87 1010.10 1010.60 1010.83 1010.90 1011.38 1011.28 1011.31 1011.21 1011.15 1010.98 1011.00 1010.83 1010.85 1011.20 1011.53 1011.68
1017.36 1017.07 1016.66 1015.90 1015.05 1014.69 1014.68 1013.96 1012.88 1011.96 1011.11 1009.68 1009.19 1008.95 1008.92 1009.10 1008.98 1009.04 1009.01 1008.51 1008.29 1008.33 1008.26 1008.33 1008.75 1009.10 1009.33 1009.73 1009.92 1010.21 1010.46 1010.75 1010.69 1010.54 1010.48 1010.25 1009.97 1010.02 1010.03 1010.01 1010.27 1010.61 1010.87
1017.61 1017.28 1016.67 1016.12 1015.73 1015.39 1015.18 1014.59 1013.97 1013.05 1011.92 1011.11 1010.46 1010.01 1009.50 1009.50 1009.95 1010.20 1009.49 1008.86 1008.11 1007.76 1007.79 1008.18 1008.43 1008.88 1008.99 1009.31 1010.41 1010.59 1010.58 1010.37 1010.44 1010.12 1009.89 1009.68 1009.45 1009.31 1009.35 1009.41 1009.42 1009.67 1009.87
1018.14 1017.68 1017.04 1016.60 1016.25 1015.97 1015.73 1015.05 1014.50 1013.90 1013.16 1012.37 1011.76 1011.48 1011.21 1010.92 1010.73 1010.10 1009.66 1009.87 1008.69 1008.04 1008.02 1008.96 1008.93 1009.40 1009.75 1009.76 1010.52 1010.69 1010.65 1010.66 1010.57 1010.20 1009.60 1009.12 1009.15 1009.18 1009.11 1009.28 1008.96 1009.03 1009.19
1018.53 1018.10 1017.66 1017.20 1016.72 1016.28 1015.88 1015.61 1015.09 1014.53 1014.06 1013.37 1012.90 1012.56 1012.24 1012.47 1012.08 1011.20 1010.75 1010.37 1010.72 1008.84 1008.48 1009.17 1010.11 1010.02 1010.21 1010.78 1011.08 1010.97 1010.86 1010.75 1010.59 1010.35 1009.84 1009.42 1009.49 1009.32 1008.91 1008.63 1008.55 1008.60 1008.57
1018.73 1018.28 1017.86 1017.47 1017.10 1016.71 1016.36 1015.99 1015.62 1015.16 1014.51 1014.01 1013.53 1013.29 1012.98 1013.17 1012.77 1012.78 1011.72 1011.66 1011.96 1011.72 1009.95 1009.60 1010.13 1010.92 1010.95 1011.31 1011.46 1011.27 1010.87 1010.65 1010.39 1010.39 1010.14 1010.06 1009.52 1009.02 1008.74 1008.60 1008.08 1008.03 1008.10
1019.01 1018.59 1018.28 1017.90 1017.48 1017.13 1016.78 1016.42 1016.13 1015.71 1015.20 1014.76 1014.33 1013.87 1013.70 1013.55 1013.25 1013.25 1013.20 1012.74 1013.03 1013.31 1011.94 1011.39 1011.53 1011.86 1011.95 1011.79 1011.78 1011.76 1011.36 1011.04 1010.84 1010.80 1010.13 1009.67 1009.31 1008.96 1008.59 1008.35 1007.97 1007.50 1007.49
1019.24 1018.89 1018.63 1018.28 1017.95 1017.62 1017.29 1016.99 1016.59 1016.27 1015.89 1015.50 1015.00 1014.50 1014.35 1013.99 1013.75 1013.58 1013.12 1013.52 1014.13 1014.01 1013.05 1012.29 1012.34 1012.35 1012.35 1012.01 1012.07 1012.19 1011.96 1011.71 1011.44 1010.81 1010.25 1009.73 1009.50 1009.22 1009.11 1008.41 1007.75 1007.33 1007.13
1019.45 1019.22 1018.93 1018.67 1018.34 1017.95 1017.59 1017.33 1017.16 1016.84 1016.52 1016.16 1015.79 1015.39 1014.99 1014.44 1014.30 1014.19 1014.19 1014.69 1014.48 1014.28 1014.13 1013.86 1013.57 1013.25 1013.09 1013.16 1013.23 1012.74 1012.24 1011.81 1011.39 1010.72 1010.39 1009.91 1009.84 1009.58 1009.09 1008.69 1007.91 1007.60 1007.30
1019.29 1019.10 1018.96 1018.71 1018.45 1018.15 1017.81 1017.47 1017.26 1017.07 1016.83 1016.55 1016.14 1015.71 1015.36 1015.05 1014.91 1014.78 1014.69 1014.59 1014.60 1014.45 1014.43 1014.54 1014.18 1013.88 1013.58 1013.47 1013.23 1012.69 1012.17 1012.22 1011.87 1011.24 1010.57 1010.16 1009.82 1009.57 1008.95 1008.45 1008.20 1007.70 1007.32
1019.27 1019.07 1018.84 1018.68 1018.46 1018.25 1017.99 1017.75 1017.54 1017.39 1017.20 1016.93 1016.55 1016.16 1015.81 1015.47 1015.19 1014.96 1014.79 1014.74 1014.77 1014.76 1014.76 1014.73 1014.50 1014.49 1014.15 1013.54 1013.48 1013.10 1012.57 1012.44 1011.65 1011.32 1011.04 1010.50 1010.22 1009.67 1009.13 1008.63 1008.13 1007.57 1007.30
1019.17 1019.03 1018.88 1018.57 1018.32 1018.06 1017.89 1017.53 1017.52 1017.56 1017.51 1017.35 1017.01 1016.71 1016.36 1015.92 1015.51 1015.10 1014.90 1014.94 1014.99 1015.04 1014.90 1014.86 1014.86 1014.77 1014.41 1013.95 1013.82 1013.65 1013.33 1012.91 1011.86 1011.42 1011.05 1010.82 1010.47 1009.89 1009.21 1008.72 1008.18 1007.61 1007.24
1019.14 1018.98 1018.86 1018.70 1018.37 1018.00 1017.70 1017.29 1017.12 1017.39 1017.53 1017.51 1017.33 1016.91 1016.53 1016.17 1015.76 1015.32 1014.81 1014.49 1014.35 1014.47 1014.73 1014.87 1014.97 1014.86 1014.71 1014.42 1014.15 1013.92 1013.44 1013.22 1012.48 1011.54 1011.44 1010.68 1010.68 1010.04 1009.30 1008.61 1008.23 1007.75 1007.04
1019.02 1018.93 1018.81 1018.69 1018.50 1018.09 1017.52 1017.02 1017.02 1017.22 1017.40 1017.41 1017.18 1016.88 1016.50 1016.12 1015.85 1015.51 1015.09 1014.76 1014.52 1014.22 1013.94 1014.03 1014.31 1014.34 1014.16 1013.90 1013.78 1013.36 1013.34 1013.10 1013.06 1011.66 1011.54 1010.78 1010.21 1010.35 1009.37 1008.40 1008.03 1007.54 1006.86
1018.83 1018.78 1018.63 1018.49 1018.41 1018.08 1017.55 1017.11 1016.90 1016.98 1017.01 1017.03 1016.94 1016.69 1016.38 1015.98 1015.59 1015.04 1014.81 1014.72 1014.42 1014.11 1013.86 1013.80 1013.64 1013.39 1013.36 1013.20 1013.00 1012.95 1012.86 1012.91 1012.21 1012.14 1011.21 1010.54 1010.25 1010.06 1009.11 1008.13 1007.67 1007.13 1006.91
1018.57 1018.56 1018.48 1018.39 1018.24 1017.86 1017.53 1017.18 1016.84 1016.85 1016.85 1016.81 1016.68 1016.39 1016.05 1015.70 1015.28 1014.75 1014.48 1014.36 1014.12 1013.91 1013.44 1013.08 1012.85 1012.87 1012.65 1012.15 1012.03 1012.29 1012.35 1012.73 1012.49 1011.82 1010.81 1011.02 1010.68 1010.02 1009.20 1008.24 1007.84 1007.44 1006.97
1018.20 1018.29 1018.17 1018.02 1017.94 1017.74 1017.42 1017.09 1016.69 1016.49 1016.53 1016.53 1016.44 1016.19 1015.90 1015.51 1015.03 1014.52 1014.13 1014.04 1013.89 1013.71 1013.32 1012.91 1012.69 1012.49 1012.33 1012.12 1011.75 1011.88 1012.16 1012.46 1012.42 1011.72 1011.00 1011.28 1010.75 1010.45 1009.60 1008.15 1007.64 1007.31 1006.74
Wind_Speed
4 4 4 4 4 4 4 6 7 7 8 9 9 10 10 10 9 6 5 14 16 18 20 22 20 21 19 19 18 17 16 16 16 15 14 14 13 13 12 11 11 10 10
4 4 4 4 5 4 5 6 7 8 8 8 9 10 12 10 10 9 6 6 13 16 19 20 21 21 21 21 20 19 17 17 17 17 16 16 15 15 15 14 14 13 12
5 5 4 4 4 5 7 7 7 8 8 7 10 10 10 11 9 10 8 6 6 14 17 22 22 22 21 22 21 21 19 18 18 17 17 17 16 15 16 16 15 14 14
6 5 4 4 4 5 5 7 9 9 9 8 9 8 8 9 11 10 9 8 7 6 10 19 21 21 22 24 23 22 20 19 20 19 19 19 18 17 18 18 17 16 16
8 7 5 6 7 7 6 5 7 7 8 9 9 8 8 9 10 7 10 10 9 8 6 10 14 15 12 20 25 24 22 20 20 21 21 20 20 19 19 19 18 18 19
11 10 8 9 9 8 7 6 8 7 8 11 9 8 7 7 7 7 9 8 9 9 9 8 5 4 2 4 14 21 25 21 21 19 21 22 21 21 22 21 20 20 20
10 8 7 7 7 7 11 10 10 9 8 7 7 8 6 8 9 8 8 8 10 10 9 8 5 4 5 9 10 16 20 21 23 22 22 21 22 22 23 24 22 22 22
8 9 8 8 9 8 9 12 10 8 7 5 7 3 4 4 7 9 8 8 10 7 9 10 8 8 7 6 9 12 17 19 25 28 24 23 22 23 25 25 23 23 21
9 8 8 7 10 8 7 11 11 14 10 6 10 5 3 4 1 4 10 8 9 7 8 8 9 9 9 8 8 11 15 21 25 24 26 26 24 25 24 26 25 23 22
9 9 9 8 8 8 11 10 11 10 9 10 6 7 5 3 4 3 2 5 7 7 9 7 7 8 9 7 10 11 12 17 20 22 24 25 27 28 26 25 25 24 23
8 9 9 9 10 9 12 12 13 11 9 7 6 2 1 2 5 5 6 2 2 4 6 7 7 5 7 7 6 6 11 16 17 18 20 22 23 22 26 25 24 24 23
4 7 7 8 9 9 11 11 13 12 11 8 6 6 2 2 2 4 5 12 10 3 3 2 4 3 2 4 10 9 10 9 8 9 13 16 19 19 20 21 22 23 25
4 8 8 8 7 8 9 9 10 11 11 10 10 6 5 5 4 1 2 9 6 2 2 6 6 6 6 7 7 9 7 10 11 12 12 13 16 17 16 18 20 21 23
4 6 7 7 7 7 6 7 6 7 9 8 10 8 6 7 7 7 5 4 7 3 4 4 5 7 7 6 9 11 5 11 13 12 13 16 16 17 17 16 16 18 19
5 6 6 6 7 7 8 7 5 7 7 8 8 7 6 5 5 6 6 8 4 4 2 5 3 9 7 7 10 8 9 14 14 16 15 16 16 16 18 17 15 15 17
6 6 6 7 7 6 7 7 5 7 7 6 6 7 7 5 6 5 4 6 5 5 3 5 4 6 6 7 9 8 9 13 14 17 18 18 17 16 16 16 16 13 16
6 6 6 6 6 6 6 6 6 6 6 6 6 7 8 7 5 5 5 4 3 4 4 4 4 6 7 9 8 8 7 6 7 16 19 19 14 16 19 20 19 17 16
4 5 5 6 6 6 6 6 6 6 7 8 8 6 7 7 7 6 4 3 3 4 3 4 4 4 4 6 7 6 7 7 8 14 19 14 17 17 18 20 19 18 17
3 3 3 4 5 5 5 4 5 5 5 5 5 5 6 6 6 4 3 3 3 3 3 2 3 2 2 2 5 4 6 4 6 16 12 17 20 20 20 18 19 18 18
2 4 3 4 4 5 5 3 2 4 5 5 5 5 5 5 5 4 2 3 3 3 3 2 3 3 2 3 3 5 8 5 8 7 10 15 17 18 17 18 17 15 17
2 3 4 4 4 4 4 2 0 1 3 5 5 5 5 6 8 7 3 3 1 1 1 2 2 2 3 4 5 4 4 6 7 0 6 8 8 6 8 13 13 19 21
1 1 3 4 5 3 8 8 4 1 3 4 4 5 5 7 8 12 12 11 4 2 2 2 2 2 4 3 2 3 2 4 5 2 7 8 5 7 6 6 19 23 23
2 2 2 3 5 5 9 8 9 3 2 4 5 5 5 3 6 5 9 9 9 12 10 4 3 4 3 3 3 3 2 1 4 7 4 5 4 6 6 10 22 21 17
3 3 3 3 3 4 7 8 4 2 3 5 5 5 5 5 6 8 5 5 6 5 5 4 5 6 6 7 6 3 3 4 3 5 2 2 3 5 8 9 19 13 19
3 3 3 3 3 5 8 8 5 2 3 5 5 6 5 6 12 15 6 6 6 5 7 12 12 12 15 15 10 1 2 1 3 3 2 1 3 6 5 6 4 16 19
3 2 4 3 5 4 8 9 7 1 3 3 5 5 10 11 16 15 8 6 6 6 6 6 5 6 9 6 10 3 3 2 4 3 2 2 4 3 6 4 4 8 7
Wind_Direction
302 303 300 299 290 289 276 280 267 261 243 239 229 226 225 223 220 214 219 219 224 230 236 236 235 223 225 230 230 228 227 228 228 227 225 224 224 226 227 225 222 223 226
287 291 294 294 294 286 278 271 275 269 259 242 231 227 234 227 221 217 216 215 227 233 236 240 240 238 232 232 230 230 227 229 232 233 231 229 228 227 228 228 226 226 229
296 284 278 284 280 284 287 286 285 277 260 250 244 234 235 232 228 219 216 206 216 227 232 241 245 244 237 239 234 232 233 226 229 232 235 234 231 230 233 234 234 232 233
318 314 304 288 280 278 284 296 296 293 281 255 249 236 238 233 228 226 220 216 208 217 228 234 239 241 239 235 236 239 232 228 224 226 228 231 232 228 229 233 233 231 233
356 348 332 318 312 301 286 278 279 271 279 268 256 248 238 232 226 218 221 214 209 208 210 217 224 237 260 247 241 243 243 241 229 225 228 230 231 231 229 232 233 232 231
2 353 344 339 330 312 291 277 268 265 271 271 263 255 237 232 218 205 216 209 207 203 205 200 180 173 204 276 289 268 258 250 251 244 237 235 232 231 233 232 231 232 234
357 345 347 331 324 320 309 290 273 267 266 265 266 262 248 239 237 223 221 210 206 208 207 208 207 206 190 197 255 276 279 284 270 262 251 242 241 235 235 238 236 234 235
354 0 344 341 333 323 320 302 276 269 260 219 257 243 267 266 230 226 220 215 219 211 213 211 204 203 200 213 216 232 268 270 276 277 269 261 246 242 240 240 239 238 235
354 354 352 355 339 329 341 332 306 279 269 260 220 227 257 242 309 233 228 222 215 210 219 219 214 209 209 220 218 219 230 254 262 276 282 277 266 260 245 245 242 240 236
356 354 355 1 348 351 352 344 330 326 270 263 254 220 222 197 226 298 285 231 217 219 219 217 212 207 207 200 213 222 220 237 252 259 263 269 265 251 255 248 245 244 240
356 356 352 352 10 11 352 345 343 343 336 298 262 265 175 243 249 234 270 274 246 232 223 202 197 192 191 198 200 221 228 244 258 266 276 275 272 268 263 256 249 247 244
343 346 348 10 8 6 356 350 345 350 351 352 347 358 26 112 148 49 321 256 230 192 196 216 188 165 86 87 68 33 32 30 0 318 298 293 295 297 292 276 261 251 247
342 349 357 3 4 1 355 352 354 351 356 4 11 6 3 35 354 201 105 352 290 328 168 51 56 72 66 56 43 21 26 15 356 346 338 323 308 301 300 298 280 267 258
330 349 352 355 347 343 353 360 0 353 354 4 14 13 28 26 14 28 22 58 318 343 10 102 58 56 50 37 23 8 12 3 355 355 3 2 356 336 304 290 285 283 275
345 354 355 359 358 358 359 351 359 1 355 357 6 7 25 24 37 3 35 25 13 296 306 35 63 37 32 24 13 360 357 347 359 359 358 352 348 342 340 312 287 279 274
349 352 357 358 358 4 3 5 0 355 5 3 10 21 31 25 33 23 359 37 17 309 302 23 37 25 15 13 10 3 353 1 356 346 350 351 345 352 351 342 332 301 280
352 354 353 354 358 359 1 9 359 8 7 2 3 19 16 17 28 24 28 36 4 339 335 335 3 356 2 6 12 354 0 351 342 337 342 344 353 3 354 353 354 352 333
354 355 356 359 359 357 357 6 11 6 6 4 359 6 11 12 20 19 33 39 40 32 11 339 319 346 356 358 346 345 352 352 339 336 336 340 357 350 349 341 346 354 353
346 359 12 3 350 342 346 354 7 2 7 5 2 4 360 6 4 1 17 26 21 20 27 348 315 340 309 350 337 342 358 337 329 331 352 0 348 341 342 340 335 338 342
321 328 345 347 347 332 327 336 14 5 357 356 355 358 356 353 342 347 341 355 14 13 4 356 332 313 308 323 331 340 348 346 328 332 359 354 343 338 341 338 334 333 338
281 315 334 345 345 329 316 344 295 358 354 347 346 345 340 344 356 349 342 263 281 315 329 343 318 304 310 341 349 330 322 319 311 98 355 340 327 325 331 335 332 336 327
268 318 329 329 333 324 320 333 342 322 349 339 329 330 330 335 339 344 342 338 268 195 239 218 236 256 268 258 247 265 305 329 340 325 343 323 311 315 316 325 322 323 321
257 280 299 318 320 314 325 340 51 45 357 325 321 318 316 318 331 309 316 335 330 314 289 264 261 260 257 241 269 280 271 276 257 302 316 293 323 307 321 315 310 317 330
240 270 282 295 296 294 327 327 27 35 343 321 315 309 308 315 314 316 309 316 307 296 283 273 243 259 240 258 241 222 229 261 280 270 284 282 304 312 315 306 312 333 342
227 246 266 295 298 297 315 319 334 353 319 312 306 308 304 312 313 313 315 303 298 289 292 294 298 312 307 305 303 66 311 7 278 280 343 337 298 312 294 289 307 338 334
235 266 285 265 274 283 297 305 312 267 296 292 294 288 303 313 315 312 310 305 298 277 274 282 292 299 298 291 299 265 196 225 285 307 250 1 305 347 321 283 315 312 313